Tabellarische Ansicht des 28.2.2012


Die einzelnen Werte des Tages

Uhrzeit Temperatur Luftdruck Luftfeuchte Wind Hi-Wind Taupunkt THW Index Wind Chill Heat Index Solar- strahlung Regen

00:00

6.8 C

1019.2 hpa

91 %

9.7 km/h aus 117

20.9 km/h aus SSW

5.5 C

5.0 C

4.9 C

6.9 C

0 W/m

0.00 mm

00:05

6.8 C

1019.2 hpa

91 %

9.7 km/h aus 116

17.7 km/h aus SW

5.5 C

5.0 C

4.9 C

6.9 C

0 W/m

0.00 mm

00:10

6.8 C

1019.2 hpa

91 %

6.4 km/h aus 117

16.1 km/h aus SSW

5.5 C

5.8 C

5.7 C

6.9 C

0 W/m

0.00 mm

00:15

6.8 C

1019.2 hpa

91 %

8.0 km/h aus 117

14.5 km/h aus SW

5.5 C

5.3 C

5.3 C

6.9 C

0 W/m

0.00 mm

00:20

6.8 C

1019.2 hpa

91 %

9.7 km/h aus 117

17.7 km/h aus SW

5.5 C

5.0 C

4.9 C

6.9 C

0 W/m

0.00 mm

00:25

6.8 C

1019.2 hpa

91 %

9.7 km/h aus 117

17.7 km/h aus SSW

5.5 C

5.0 C

4.9 C

6.9 C

0 W/m

0.00 mm

00:30

6.8 C

1019.1 hpa

91 %

8.0 km/h aus 117

14.5 km/h aus SSW

5.5 C

5.3 C

5.3 C

6.9 C

0 W/m

0.00 mm

00:35

6.8 C

1019.1 hpa

91 %

8.0 km/h aus 117

12.9 km/h aus SW

5.5 C

5.3 C

5.3 C

6.9 C

0 W/m

0.00 mm

00:40

6.8 C

1019.1 hpa

91 %

8.0 km/h aus 117

17.7 km/h aus WSW

5.5 C

5.3 C

5.3 C

6.9 C

0 W/m

0.00 mm

00:45

6.8 C

1019.3 hpa

91 %

8.0 km/h aus 117

19.3 km/h aus SSW

5.5 C

5.3 C

5.3 C

6.9 C

0 W/m

0.00 mm

00:50

6.8 C

1019.3 hpa

91 %

6.4 km/h aus 114

11.3 km/h aus SSW

5.5 C

5.8 C

5.7 C

6.9 C

0 W/m

0.00 mm

00:55

6.8 C

1019.3 hpa

91 %

9.7 km/h aus 116

17.7 km/h aus SSW

5.5 C

5.0 C

4.9 C

6.9 C

0 W/m

0.00 mm

01:00

6.8 C

1019.2 hpa

91 %

8.0 km/h aus 117

19.3 km/h aus S

5.5 C

5.3 C

5.3 C

6.9 C

0 W/m

0.00 mm

01:05

6.8 C

1019.2 hpa

91 %

4.8 km/h aus 118

12.9 km/h aus WSW

5.5 C

6.3 C

6.2 C

6.9 C

0 W/m

0.00 mm

01:10

6.8 C

1019.2 hpa

91 %

8.0 km/h aus 117

17.7 km/h aus SW

5.5 C

5.3 C

5.3 C

6.9 C

0 W/m

0.00 mm

01:15

6.8 C

1019.0 hpa

91 %

8.0 km/h aus 116

22.5 km/h aus SSW

5.4 C

5.3 C

5.2 C

6.8 C

0 W/m

0.00 mm

01:20

6.8 C

1019.0 hpa

91 %

8.0 km/h aus 117

17.7 km/h aus SW

5.4 C

5.3 C

5.2 C

6.8 C

0 W/m

0.00 mm

01:25

6.8 C

1019.0 hpa

91 %

9.7 km/h aus 117

16.1 km/h aus SW

5.4 C

4.9 C

4.8 C

6.8 C

0 W/m

0.00 mm

01:30

6.8 C

1018.8 hpa

91 %

9.7 km/h aus 114

17.7 km/h aus SSW

5.4 C

4.9 C

4.8 C

6.8 C

0 W/m

0.00 mm

01:35

6.8 C

1018.8 hpa

91 %

8.0 km/h aus 117

16.1 km/h aus SW

5.4 C

5.3 C

5.2 C

6.8 C

0 W/m

0.00 mm

01:40

6.8 C

1018.8 hpa

91 %

8.0 km/h aus 115

16.1 km/h aus SW

5.4 C

5.3 C

5.2 C

6.8 C

0 W/m

0.00 mm

01:45

6.8 C

1018.9 hpa

91 %

9.7 km/h aus 116

19.3 km/h aus SW

5.4 C

4.9 C

4.8 C

6.8 C

0 W/m

0.00 mm

01:50

6.8 C

1018.9 hpa

91 %

9.7 km/h aus 117

22.5 km/h aus SW

5.4 C

4.9 C

4.8 C

6.8 C

0 W/m

0.00 mm

01:55

6.8 C

1018.9 hpa

91 %

11.3 km/h aus 117

19.3 km/h aus WSW

5.4 C

4.6 C

4.6 C

6.8 C

0 W/m

0.00 mm

02:00

6.8 C

1018.8 hpa

91 %

9.7 km/h aus 116

17.7 km/h aus SSW

5.4 C

4.9 C

4.8 C

6.8 C

0 W/m

0.00 mm

02:05

6.8 C

1018.8 hpa

91 %

8.0 km/h aus 116

14.5 km/h aus WSW

5.4 C

5.3 C

5.2 C

6.8 C

0 W/m

0.00 mm

02:10

6.8 C

1018.8 hpa

91 %

9.7 km/h aus 117

16.1 km/h aus SSW

5.4 C

4.9 C

4.8 C

6.8 C

0 W/m

0.00 mm

02:15

6.8 C

1018.8 hpa

91 %

11.3 km/h aus 115

17.7 km/h aus SSW

5.4 C

4.6 C

4.6 C

6.8 C

0 W/m

0.00 mm

02:20

6.8 C

1018.8 hpa

91 %

11.3 km/h aus 116

20.9 km/h aus SW

5.4 C

4.6 C

4.6 C

6.8 C

0 W/m

0.00 mm

02:25

6.8 C

1018.8 hpa

92 %

11.3 km/h aus 117

20.9 km/h aus WSW

5.6 C

4.6 C

4.6 C

6.8 C

0 W/m

0.00 mm

02:30

6.8 C

1018.7 hpa

92 %

12.9 km/h aus 116

20.9 km/h aus SSW

5.6 C

4.3 C

4.2 C

6.8 C

0 W/m

0.00 mm

02:35

6.8 C

1018.7 hpa

92 %

11.3 km/h aus 116

19.3 km/h aus SSW

5.6 C

4.6 C

4.6 C

6.8 C

0 W/m

0.00 mm

02:40

6.8 C

1018.7 hpa

92 %

11.3 km/h aus 117

22.5 km/h aus SSW

5.6 C

4.6 C

4.6 C

6.8 C

0 W/m

0.00 mm

02:45

6.8 C

1018.6 hpa

92 %

11.3 km/h aus 116

19.3 km/h aus SSW

5.6 C

4.6 C

4.6 C

6.8 C

0 W/m

0.00 mm

02:50

6.8 C

1018.6 hpa

92 %

11.3 km/h aus 117

19.3 km/h aus SW

5.6 C

4.6 C

4.6 C

6.8 C

0 W/m

0.00 mm

02:55

6.8 C

1018.6 hpa

92 %

12.9 km/h aus 117

20.9 km/h aus SSW

5.6 C

4.3 C

4.2 C

6.8 C

0 W/m

0.00 mm

03:00

6.8 C

1018.3 hpa

92 %

11.3 km/h aus 117

22.5 km/h aus SSW

5.6 C

4.6 C

4.6 C

6.8 C

0 W/m

0.00 mm

03:05

6.8 C

1018.3 hpa

92 %

12.9 km/h aus 116

20.9 km/h aus WSW

5.6 C

4.3 C

4.2 C

6.8 C

0 W/m

0.00 mm

03:10

6.8 C

1018.3 hpa

92 %

14.5 km/h aus 117

24.1 km/h aus SSW

5.6 C

3.9 C

3.9 C

6.8 C

0 W/m

0.00 mm

03:15

6.8 C

1018.2 hpa

92 %

11.3 km/h aus 118

19.3 km/h aus SW

5.6 C

4.6 C

4.6 C

6.8 C

0 W/m

0.00 mm

03:20

6.8 C

1018.2 hpa

92 %

12.9 km/h aus 117

20.9 km/h aus SSW

5.6 C

4.3 C

4.2 C

6.8 C

0 W/m

0.00 mm

03:25

6.8 C

1018.2 hpa

92 %

11.3 km/h aus 117

19.3 km/h aus SW

5.6 C

4.6 C

4.6 C

6.8 C

0 W/m

0.00 mm

03:30

6.8 C

1018.1 hpa

92 %

6.4 km/h aus 116

17.7 km/h aus SSW

5.6 C

5.7 C

5.6 C

6.8 C

0 W/m

0.00 mm

03:35

6.8 C

1018.1 hpa

92 %

9.7 km/h aus 117

17.7 km/h aus SW

5.6 C

4.9 C

4.8 C

6.8 C

0 W/m

0.00 mm

03:40

6.8 C

1018.1 hpa

92 %

11.3 km/h aus 116

22.5 km/h aus WSW

5.6 C

4.6 C

4.6 C

6.8 C

0 W/m

0.00 mm

03:45

6.8 C

1018.2 hpa

92 %

11.3 km/h aus 117

19.3 km/h aus SW

5.6 C

4.6 C

4.6 C

6.8 C

0 W/m

0.00 mm

03:50

6.8 C

1018.2 hpa

92 %

11.3 km/h aus 117

20.9 km/h aus SSW

5.6 C

4.6 C

4.6 C

6.8 C

0 W/m

0.00 mm

03:55

6.8 C

1018.2 hpa

92 %

11.3 km/h aus 116

17.7 km/h aus SSW

5.6 C

4.6 C

4.6 C

6.8 C

0 W/m

0.00 mm

04:00

6.8 C

1018.2 hpa

92 %

6.4 km/h aus 116

14.5 km/h aus SW

5.6 C

5.7 C

5.6 C

6.8 C

0 W/m

0.00 mm

04:05

6.8 C

1018.2 hpa

92 %

9.7 km/h aus 117

19.3 km/h aus SW

5.6 C

4.9 C

4.8 C

6.8 C

0 W/m

0.00 mm

04:10

6.8 C

1018.2 hpa

92 %

9.7 km/h aus 116

19.3 km/h aus SW

5.6 C

4.9 C

4.8 C

6.8 C

0 W/m

0.00 mm

04:15

6.8 C

1017.7 hpa

92 %

11.3 km/h aus 117

22.5 km/h aus SSW

5.6 C

4.6 C

4.6 C

6.8 C

0 W/m

0.00 mm

04:20

6.8 C

1017.7 hpa

92 %

11.3 km/h aus 117

20.9 km/h aus S

5.6 C

4.6 C

4.6 C

6.8 C

0 W/m

0.00 mm

04:25

6.8 C

1017.7 hpa

92 %

12.9 km/h aus 116

19.3 km/h aus SSW

5.6 C

4.3 C

4.2 C

6.8 C

0 W/m

0.00 mm

04:30

6.8 C

1017.9 hpa

92 %

11.3 km/h aus 116

22.5 km/h aus SW

5.6 C

4.6 C

4.6 C

6.8 C

0 W/m

0.00 mm

04:35

6.8 C

1017.9 hpa

92 %

11.3 km/h aus 115

20.9 km/h aus SSW

5.6 C

4.6 C

4.6 C

6.8 C

0 W/m

0.00 mm

04:40

6.8 C

1017.9 hpa

92 %

11.3 km/h aus 116

19.3 km/h aus SSW

5.6 C

4.6 C

4.6 C

6.8 C

0 W/m

0.00 mm

04:45

6.8 C

1017.8 hpa

92 %

12.9 km/h aus 117

22.5 km/h aus WSW

5.6 C

4.4 C

4.3 C

6.9 C

0 W/m

0.00 mm

04:50

6.8 C

1017.8 hpa

92 %

11.3 km/h aus 117

19.3 km/h aus SW

5.6 C

4.7 C

4.7 C

6.9 C

0 W/m

0.00 mm

04:55

6.8 C

1017.8 hpa

92 %

12.9 km/h aus 117

22.5 km/h aus SSW

5.6 C

4.4 C

4.3 C

6.9 C

0 W/m

0.00 mm

05:00

6.8 C

1017.7 hpa

93 %

11.3 km/h aus 117

22.5 km/h aus SSW

5.8 C

4.8 C

4.7 C

6.9 C

0 W/m

0.00 mm

05:05

6.8 C

1017.7 hpa

93 %

12.9 km/h aus 117

22.5 km/h aus SSW

5.8 C

4.4 C

4.3 C

6.9 C

0 W/m

0.00 mm

05:10

6.8 C

1017.7 hpa

93 %

12.9 km/h aus 117

22.5 km/h aus SW

5.8 C

4.4 C

4.3 C

6.9 C

0 W/m

0.00 mm

05:15

6.8 C

1017.7 hpa

93 %

14.5 km/h aus 117

22.5 km/h aus SW

5.8 C

4.1 C

4.0 C

6.9 C

0 W/m

0.00 mm

05:20

6.8 C

1017.7 hpa

92 %

12.9 km/h aus 117

22.5 km/h aus SSW

5.6 C

4.4 C

4.3 C

6.9 C

0 W/m

0.00 mm

05:25

6.9 C

1017.7 hpa

93 %

11.3 km/h aus 115

20.9 km/h aus SW

5.8 C

4.8 C

4.7 C

7.0 C

0 W/m

0.00 mm

05:30

6.9 C

1018.2 hpa

93 %

9.7 km/h aus 114

22.5 km/h aus WSW

5.8 C

5.1 C

5.0 C

7.0 C

0 W/m

0.00 mm

05:35

6.9 C

1018.2 hpa

93 %

11.3 km/h aus 117

19.3 km/h aus SW

5.8 C

4.8 C

4.7 C

7.0 C

0 W/m

0.00 mm

05:40

6.9 C

1018.2 hpa

93 %

9.7 km/h aus 117

19.3 km/h aus SSW

5.8 C

5.1 C

5.0 C

7.0 C

0 W/m

0.00 mm

05:45

6.9 C

1018.0 hpa

93 %

12.9 km/h aus 117

20.9 km/h aus SSW

5.8 C

4.5 C

4.4 C

7.0 C

0 W/m

0.00 mm

05:50

6.9 C

1018.0 hpa

93 %

12.9 km/h aus 117

24.1 km/h aus SW

5.8 C

4.5 C

4.4 C

7.0 C

0 W/m

0.00 mm

05:55

6.9 C

1018.0 hpa

93 %

12.9 km/h aus 115

22.5 km/h aus SSW

5.8 C

4.5 C

4.4 C

7.0 C

0 W/m

0.00 mm

06:00

6.9 C

1017.7 hpa

93 %

11.3 km/h aus 116

19.3 km/h aus SW

5.9 C

4.9 C

4.8 C

7.1 C

0 W/m

0.00 mm

06:05

6.9 C

1017.7 hpa

93 %

14.5 km/h aus 117

30.6 km/h aus SSW

5.9 C

4.2 C

4.1 C

7.1 C

0 W/m

0.00 mm

06:10

6.9 C

1017.7 hpa

93 %

14.5 km/h aus 116

29.0 km/h aus SSW

5.9 C

4.2 C

4.1 C

7.1 C

0 W/m

0.00 mm

06:15

7.0 C

1017.9 hpa

93 %

14.5 km/h aus 117

22.5 km/h aus SW

5.9 C

4.3 C

4.2 C

7.1 C

0 W/m

0.00 mm

06:20

7.0 C

1017.9 hpa

93 %

12.9 km/h aus 117

27.4 km/h aus SSW

5.9 C

4.6 C

4.5 C

7.1 C

0 W/m

0.00 mm

06:25

7.0 C

1017.9 hpa

93 %

11.3 km/h aus 117

19.3 km/h aus SSW

5.9 C

4.9 C

4.8 C

7.1 C

0 W/m

0.00 mm

06:30

7.0 C

1017.9 hpa

93 %

14.5 km/h aus 117

22.5 km/h aus SSW

5.9 C

4.3 C

4.2 C

7.1 C

0 W/m

0.00 mm

06:35

7.0 C

1017.9 hpa

93 %

14.5 km/h aus 117

24.1 km/h aus SW

5.9 C

4.3 C

4.2 C

7.1 C

0 W/m

0.00 mm

06:40

7.0 C

1017.9 hpa

93 %

12.9 km/h aus 116

27.4 km/h aus WSW

5.9 C

4.6 C

4.5 C

7.1 C

0 W/m

0.00 mm

06:45

7.0 C

1017.7 hpa

93 %

16.1 km/h aus 117

24.1 km/h aus SSW

5.9 C

4.0 C

3.9 C

7.1 C

0 W/m

0.00 mm

06:50

7.0 C

1017.7 hpa

93 %

14.5 km/h aus 117

24.1 km/h aus SW

5.9 C

4.3 C

4.2 C

7.1 C

0 W/m

0.00 mm

06:55

7.0 C

1017.7 hpa

93 %

16.1 km/h aus 115

27.4 km/h aus SW

5.9 C

4.0 C

3.9 C

7.1 C

0 W/m

0.00 mm

07:00

7.1 C

1017.8 hpa

93 %

14.5 km/h aus 117

24.1 km/h aus SSW

6.0 C

4.3 C

4.2 C

7.2 C

0 W/m

0.00 mm

07:05

7.1 C

1017.8 hpa

93 %

11.3 km/h aus 116

20.9 km/h aus SW

6.0 C

5.0 C

4.9 C

7.2 C

0 W/m

0.00 mm

07:10

7.1 C

1017.8 hpa

93 %

12.9 km/h aus 115

22.5 km/h aus SW

6.0 C

4.7 C

4.6 C

7.2 C

0 W/m

0.00 mm

07:15

7.1 C

1018.0 hpa

93 %

11.3 km/h aus 117

22.5 km/h aus SW

6.0 C

5.0 C

4.9 C

7.2 C

0 W/m

0.00 mm

07:20

7.1 C

1018.0 hpa

93 %

9.7 km/h aus 117

22.5 km/h aus SSW

6.0 C

5.3 C

5.2 C

7.2 C

0 W/m

0.00 mm

07:25

7.1 C

1018.0 hpa

93 %

14.5 km/h aus 117

24.1 km/h aus SSW

6.0 C

4.3 C

4.2 C

7.2 C

0 W/m

0.00 mm

07:30

7.1 C

1018.2 hpa

93 %

12.9 km/h aus 118

22.5 km/h aus SW

6.0 C

4.7 C

4.6 C

7.2 C

0 W/m

0.00 mm

07:35

7.1 C

1018.2 hpa

93 %

9.7 km/h aus 117

19.3 km/h aus SW

6.1 C

5.4 C

5.3 C

7.2 C

0 W/m

0.00 mm

07:40

7.1 C

1018.2 hpa

93 %

12.9 km/h aus 117

24.1 km/h aus SSW

6.1 C

4.8 C

4.7 C

7.2 C

0 W/m

0.00 mm

07:45

7.1 C

1018.1 hpa

93 %

9.7 km/h aus 116

24.1 km/h aus SW

6.1 C

5.4 C

5.3 C

7.2 C

0 W/m

0.00 mm

07:50

7.1 C

1018.1 hpa

93 %

14.5 km/h aus 116

25.7 km/h aus SSW

6.1 C

4.4 C

4.3 C

7.2 C

0 W/m

0.00 mm

07:55

7.2 C

1018.1 hpa

93 %

12.9 km/h aus 117

25.7 km/h aus WSW

6.1 C

4.8 C

4.7 C

7.3 C

0 W/m

0.00 mm

08:00

7.2 C

1018.2 hpa

93 %

12.9 km/h aus 117

29.0 km/h aus SSW

6.2 C

4.9 C

4.8 C

7.3 C

0 W/m

0.00 mm

08:05

7.2 C

1018.2 hpa

93 %

11.3 km/h aus 116

19.3 km/h aus SW

6.2 C

5.2 C

5.1 C

7.3 C

0 W/m

0.00 mm

08:10

7.2 C

1018.2 hpa

93 %

12.9 km/h aus 117

24.1 km/h aus SW

6.2 C

4.9 C

4.8 C

7.3 C

0 W/m

0.00 mm

08:15

7.2 C

1018.1 hpa

93 %

14.5 km/h aus 117

22.5 km/h aus SSW

6.2 C

4.6 C

4.4 C

7.3 C

0 W/m

0.00 mm

08:20

7.2 C

1018.1 hpa

93 %

12.9 km/h aus 117

24.1 km/h aus SSW

6.2 C

4.9 C

4.8 C

7.3 C

0 W/m

0.00 mm

08:25

7.2 C

1018.1 hpa

93 %

17.7 km/h aus 117

27.4 km/h aus SSW

6.2 C

4.0 C

3.9 C

7.3 C

0 W/m

0.00 mm

08:30

7.2 C

1017.9 hpa

93 %

12.9 km/h aus 116

27.4 km/h aus SSW

6.2 C

4.9 C

4.8 C

7.3 C

0 W/m

0.00 mm

08:35

7.2 C

1017.9 hpa

94 %

14.5 km/h aus 116

25.7 km/h aus SW

6.3 C

4.6 C

4.4 C

7.3 C

0 W/m

0.00 mm

08:40

7.2 C

1017.9 hpa

94 %

14.5 km/h aus 117

22.5 km/h aus SW

6.3 C

4.6 C

4.4 C

7.3 C

0 W/m

0.00 mm

08:45

7.3 C

1017.9 hpa

94 %

14.5 km/h aus 117

25.7 km/h aus WSW

6.4 C

4.6 C

4.5 C

7.4 C

0 W/m

0.00 mm

08:50

7.3 C

1017.9 hpa

94 %

12.9 km/h aus 117

20.9 km/h aus SW

6.4 C

4.9 C

4.8 C

7.4 C

0 W/m

0.00 mm

08:55

7.3 C

1017.9 hpa

94 %

16.1 km/h aus 117

27.4 km/h aus SSW

6.4 C

4.3 C

4.2 C

7.4 C

0 W/m

0.00 mm

09:00

7.3 C

1017.8 hpa

94 %

14.5 km/h aus 116

25.7 km/h aus SW

6.4 C

4.7 C

4.6 C

7.4 C

0 W/m

0.00 mm

09:05

7.3 C

1017.8 hpa

94 %

16.1 km/h aus 117

27.4 km/h aus SW

6.4 C

4.4 C

4.3 C

7.4 C

0 W/m

0.00 mm

09:10

7.3 C

1017.8 hpa

94 %

12.9 km/h aus 117

27.4 km/h aus SSW

6.4 C

5.0 C

4.9 C

7.4 C

0 W/m

0.00 mm

09:15

7.4 C

1017.9 hpa

94 %

14.5 km/h aus 117

24.1 km/h aus SSW

6.5 C

4.8 C

4.7 C

7.5 C

0 W/m

0.00 mm

09:20

7.4 C

1017.9 hpa

94 %

12.9 km/h aus 116

24.1 km/h aus SSW

6.5 C

5.2 C

5.1 C

7.6 C

0 W/m

0.00 mm

09:25

7.5 C

1017.9 hpa

94 %

12.9 km/h aus 117

24.1 km/h aus SW

6.6 C

5.2 C

5.1 C

7.6 C

0 W/m

0.00 mm

09:30

7.5 C

1018.2 hpa

94 %

8.0 km/h aus 116

22.5 km/h aus WSW

6.6 C

6.2 C

6.1 C

7.6 C

0 W/m

0.00 mm

09:35

7.6 C

1018.2 hpa

94 %

8.0 km/h aus 118

16.1 km/h aus W

6.7 C

6.2 C

6.1 C

7.7 C

0 W/m

0.00 mm

09:40

7.6 C

1018.2 hpa

94 %

9.7 km/h aus 117

19.3 km/h aus WSW

6.7 C

5.9 C

5.8 C

7.7 C

0 W/m

0.00 mm

09:45

7.6 C

1018.4 hpa

94 %

11.3 km/h aus 116

17.7 km/h aus WSW

6.7 C

5.7 C

5.6 C

7.7 C

0 W/m

0.00 mm

09:50

7.7 C

1018.4 hpa

94 %

8.0 km/h aus 117

17.7 km/h aus SSW

6.8 C

6.4 C

6.3 C

7.8 C

0 W/m

0.00 mm

09:55

7.7 C

1018.4 hpa

94 %

11.3 km/h aus 117

17.7 km/h aus WSW

6.8 C

5.9 C

5.7 C

7.9 C

0 W/m

0.00 mm

10:00

7.8 C

1018.5 hpa

94 %

9.7 km/h aus 117

20.9 km/h aus WSW

6.9 C

6.2 C

6.1 C

7.9 C

0 W/m

0.00 mm

10:05

7.8 C

1018.5 hpa

94 %

11.3 km/h aus 116

22.5 km/h aus SW

6.9 C

6.0 C

5.8 C

8.0 C

0 W/m

0.00 mm

10:10

7.8 C

1018.5 hpa

94 %

9.7 km/h aus 116

17.7 km/h aus SW

6.9 C

6.3 C

6.1 C

8.0 C

0 W/m

0.00 mm

10:15

7.9 C

1018.7 hpa

94 %

12.9 km/h aus 117

22.5 km/h aus SSW

7.0 C

5.7 C

5.6 C

8.1 C

0 W/m

0.00 mm

10:20

7.9 C

1018.7 hpa

94 %

11.3 km/h aus 117

24.1 km/h aus SSW

7.0 C

6.1 C

5.9 C

8.1 C

0 W/m

0.00 mm

10:25

7.9 C

1018.7 hpa

94 %

9.7 km/h aus 117

25.7 km/h aus SSW

7.0 C

6.4 C

6.3 C

8.1 C

0 W/m

0.00 mm

10:30

8.0 C

1018.3 hpa

94 %

16.1 km/h aus 116

27.4 km/h aus SSW

7.1 C

5.2 C

5.1 C

8.2 C

0 W/m

0.00 mm

10:35

8.0 C

1018.3 hpa

94 %

16.1 km/h aus 116

25.7 km/h aus SW

7.1 C

5.2 C

5.1 C

8.2 C

0 W/m

0.00 mm

10:40

8.0 C

1018.3 hpa

94 %

14.5 km/h aus 118

27.4 km/h aus SSW

7.1 C

5.5 C

5.3 C

8.2 C

0 W/m

0.00 mm

10:45

8.1 C

1018.1 hpa

94 %

16.1 km/h aus 117

25.7 km/h aus SW

7.1 C

5.3 C

5.1 C

8.2 C

0 W/m

0.00 mm

10:50

8.1 C

1018.1 hpa

94 %

12.9 km/h aus 117

20.9 km/h aus SSW

7.1 C

5.9 C

5.7 C

8.2 C

0 W/m

0.00 mm

10:55

8.1 C

1018.1 hpa

94 %

14.5 km/h aus 116

25.7 km/h aus SSW

7.2 C

5.7 C

5.5 C

8.3 C

0 W/m

0.00 mm

11:00

8.2 C

1018.2 hpa

94 %

11.3 km/h aus 115

25.7 km/h aus SW

7.3 C

6.4 C

6.2 C

8.3 C

0 W/m

0.00 mm

11:05

8.2 C

1018.2 hpa

94 %

12.9 km/h aus 117

22.5 km/h aus SW

7.3 C

6.1 C

5.9 C

8.3 C

0 W/m

0.00 mm

11:10

8.2 C

1018.2 hpa

94 %

14.5 km/h aus 117

27.4 km/h aus SW

7.3 C

5.7 C

5.6 C

8.3 C

0 W/m

0.00 mm

11:15

8.2 C

1018.2 hpa

93 %

12.9 km/h aus 117

27.4 km/h aus SSW

7.2 C

6.1 C

5.9 C

8.4 C

0 W/m

0.00 mm

11:20

8.2 C

1018.2 hpa

93 %

12.9 km/h aus 117

24.1 km/h aus SSW

7.2 C

6.1 C

5.9 C

8.4 C

0 W/m

0.00 mm

11:25

8.3 C

1018.2 hpa

93 %

9.7 km/h aus 117

16.1 km/h aus SSW

7.2 C

6.8 C

6.7 C

8.4 C

0 W/m

0.00 mm

11:30

8.3 C

1018.2 hpa

93 %

9.7 km/h aus 117

19.3 km/h aus SW

7.3 C

6.9 C

6.7 C

8.5 C

0 W/m

0.00 mm

11:35

8.3 C

1018.2 hpa

94 %

14.5 km/h aus 116

25.7 km/h aus WSW

7.4 C

5.9 C

5.7 C

8.5 C

0 W/m

0.00 mm

11:40

8.3 C

1018.2 hpa

93 %

9.7 km/h aus 117

19.3 km/h aus SSW

7.3 C

6.9 C

6.7 C

8.5 C

0 W/m

0.00 mm

11:45

8.4 C

1018.2 hpa

93 %

16.1 km/h aus 116

29.0 km/h aus SSW

7.3 C

5.7 C

5.5 C

8.6 C

0 W/m

0.00 mm

11:50

8.4 C

1018.2 hpa

93 %

12.9 km/h aus 117

24.1 km/h aus SSW

7.3 C

6.3 C

6.1 C

8.6 C

0 W/m

0.00 mm

11:55

8.4 C

1018.2 hpa

93 %

12.9 km/h aus 117

22.5 km/h aus SSW

7.4 C

6.3 C

6.2 C

8.6 C

0 W/m

0.00 mm

12:00

8.4 C

1018.3 hpa

93 %

11.3 km/h aus 117

24.1 km/h aus SW

7.4 C

6.7 C

6.6 C

8.6 C

0 W/m

0.00 mm

12:05

8.5 C

1018.3 hpa

93 %

14.5 km/h aus 116

24.1 km/h aus SW

7.4 C

6.1 C

5.9 C

8.7 C

0 W/m

0.00 mm

12:10

8.6 C

1018.3 hpa

93 %

11.3 km/h aus 117

20.9 km/h aus SW

7.5 C

6.9 C

6.7 C

8.7 C

0 W/m

0.00 mm

12:15

8.6 C

1018.2 hpa

93 %

14.5 km/h aus 116

24.1 km/h aus WSW

7.5 C

6.2 C

6.1 C

8.8 C

0 W/m

0.00 mm

12:20

8.7 C

1018.2 hpa

93 %

11.3 km/h aus 116

24.1 km/h aus SW

7.6 C

7.0 C

6.8 C

8.8 C

0 W/m

0.00 mm

12:25

8.7 C

1018.2 hpa

93 %

11.3 km/h aus 117

19.3 km/h aus SSW

7.7 C

7.1 C

6.9 C

8.9 C

0 W/m

0.00 mm

12:30

8.8 C

1018.1 hpa

93 %

14.5 km/h aus 115

22.5 km/h aus SSW

7.7 C

6.4 C

6.3 C

8.9 C

0 W/m

0.00 mm

12:35

8.8 C

1018.1 hpa

93 %

9.7 km/h aus 117

19.3 km/h aus SSW

7.8 C

7.5 C

7.3 C

9.0 C

0 W/m

0.00 mm

12:40

8.8 C

1018.1 hpa

93 %

11.3 km/h aus 116

22.5 km/h aus SSW

7.8 C

7.2 C

7.1 C

9.0 C

0 W/m

0.00 mm

12:45

8.9 C

1018.1 hpa

93 %

12.9 km/h aus 118

20.9 km/h aus WSW

7.8 C

6.9 C

6.7 C

9.1 C

0 W/m

0.00 mm

12:50

8.9 C

1018.1 hpa

93 %

12.9 km/h aus 116

24.1 km/h aus SW

7.9 C

6.9 C

6.8 C

9.1 C

0 W/m

0.00 mm

12:55

8.9 C

1018.1 hpa

93 %

11.3 km/h aus 117

22.5 km/h aus SW

7.9 C

7.3 C

7.2 C

9.1 C

0 W/m

0.00 mm

13:00

8.9 C

1017.9 hpa

93 %

12.9 km/h aus 116

24.1 km/h aus WSW

7.9 C

6.9 C

6.8 C

9.1 C

0 W/m

0.00 mm

13:05

9.0 C

1017.9 hpa

93 %

12.9 km/h aus 117

22.5 km/h aus WSW

7.9 C

7.0 C

6.8 C

9.2 C

0 W/m

0.00 mm

13:10

9.0 C

1017.9 hpa

93 %

12.9 km/h aus 116

24.1 km/h aus WSW

7.9 C

7.0 C

6.8 C

9.2 C

0 W/m

0.00 mm

13:15

9.1 C

1017.9 hpa

93 %

16.1 km/h aus 115

24.1 km/h aus WSW

8.0 C

6.4 C

6.3 C

9.2 C

0 W/m

0.00 mm

13:20

9.1 C

1017.9 hpa

93 %

12.9 km/h aus 117

25.7 km/h aus SSW

8.0 C

7.1 C

6.9 C

9.2 C

0 W/m

0.00 mm

13:25

9.1 C

1017.9 hpa

93 %

11.3 km/h aus 117

20.9 km/h aus SW

8.0 C

7.6 C

7.4 C

9.3 C

0 W/m

0.00 mm

13:30

9.2 C

1017.7 hpa

93 %

14.5 km/h aus 116

27.4 km/h aus SSW

8.1 C

6.9 C

6.7 C

9.4 C

0 W/m

0.00 mm

13:35

9.2 C

1017.7 hpa

93 %

11.3 km/h aus 117

27.4 km/h aus WSW

8.1 C

7.7 C

7.5 C

9.4 C

0 W/m

0.00 mm

13:40

9.3 C

1017.7 hpa

93 %

12.9 km/h aus 116

25.7 km/h aus SW

8.2 C

7.4 C

7.2 C

9.5 C

0 W/m

0.00 mm

13:45

9.3 C

1017.6 hpa

92 %

11.3 km/h aus 116

24.1 km/h aus WSW

8.1 C

7.9 C

7.7 C

9.6 C

0 W/m

0.00 mm

13:50

9.4 C

1017.6 hpa

92 %

12.9 km/h aus 118

22.5 km/h aus WSW

8.2 C

7.6 C

7.4 C

9.7 C

0 W/m

0.00 mm

13:55

9.5 C

1017.6 hpa

92 %

11.3 km/h aus 117

22.5 km/h aus SSW

8.3 C

8.1 C

7.8 C

9.7 C

0 W/m

0.00 mm

14:00

9.6 C

1017.5 hpa

92 %

11.3 km/h aus 117

24.1 km/h aus SW

8.3 C

8.1 C

7.9 C

9.8 C

0 W/m

0.00 mm

14:05

9.6 C

1017.5 hpa

92 %

14.5 km/h aus 117

27.4 km/h aus SSW

8.3 C

7.4 C

7.2 C

9.8 C

0 W/m

0.00 mm

14:10

9.6 C

1017.5 hpa

92 %

16.1 km/h aus 117

25.7 km/h aus WSW

8.4 C

7.2 C

6.9 C

9.8 C

0 W/m

0.00 mm

14:15

9.6 C

1017.6 hpa

92 %

14.5 km/h aus 115

24.1 km/h aus WSW

8.4 C

7.5 C

7.3 C

9.8 C

0 W/m

0.00 mm

14:20

9.7 C

1017.6 hpa

92 %

9.7 km/h aus 117

22.5 km/h aus SSW

8.4 C

8.6 C

8.3 C

9.9 C

0 W/m

0.00 mm

14:25

9.7 C

1017.6 hpa

91 %

12.9 km/h aus 115

24.1 km/h aus SW

8.3 C

7.8 C

7.7 C

9.8 C

0 W/m

0.00 mm

14:30

9.7 C

1017.9 hpa

91 %

12.9 km/h aus 116

22.5 km/h aus WSW

8.3 C

7.8 C

7.7 C

9.8 C

0 W/m

0.00 mm

14:35

9.7 C

1017.9 hpa

91 %

12.9 km/h aus 117

22.5 km/h aus WSW

8.3 C

7.8 C

7.7 C

9.8 C

0 W/m

0.00 mm

14:40

9.7 C

1017.9 hpa

91 %

16.1 km/h aus 117

25.7 km/h aus WSW

8.3 C

7.2 C

7.0 C

9.8 C

0 W/m

0.00 mm

14:45

9.6 C

1017.7 hpa

91 %

12.9 km/h aus 117

27.4 km/h aus SW

8.2 C

7.8 C

7.6 C

9.8 C

0 W/m

0.00 mm

14:50

9.6 C

1017.7 hpa

91 %

11.3 km/h aus 115

22.5 km/h aus WSW

8.2 C

8.2 C

8.0 C

9.8 C

0 W/m

0.00 mm

14:55

9.6 C

1017.7 hpa

91 %

9.7 km/h aus 117

19.3 km/h aus WSW

8.2 C

8.3 C

8.2 C

9.7 C

0 W/m

0.00 mm

15:00

9.6 C

1017.7 hpa

91 %

14.5 km/h aus 117

22.5 km/h aus SSW

8.2 C

7.3 C

7.2 C

9.7 C

0 W/m

0.00 mm

15:05

9.6 C

1017.7 hpa

91 %

12.9 km/h aus 117

24.1 km/h aus WSW

8.2 C

7.7 C

7.5 C

9.7 C

0 W/m

0.00 mm

15:10

9.6 C

1017.7 hpa

91 %

14.5 km/h aus 117

24.1 km/h aus SW

8.2 C

7.3 C

7.2 C

9.7 C

0 W/m

0.00 mm

15:15

9.6 C

1017.8 hpa

91 %

9.7 km/h aus 117

24.1 km/h aus WSW

8.2 C

8.3 C

8.2 C

9.7 C

0 W/m

0.00 mm

15:20

9.6 C

1017.8 hpa

92 %

11.3 km/h aus 117

20.9 km/h aus WSW

8.3 C

8.1 C

7.9 C

9.8 C

0 W/m

0.00 mm

15:25

9.6 C

1017.8 hpa

92 %

14.5 km/h aus 117

24.1 km/h aus SW

8.3 C

7.4 C

7.2 C

9.8 C

0 W/m

0.00 mm

15:30

9.6 C

1017.7 hpa

92 %

16.1 km/h aus 117

24.1 km/h aus WSW

8.3 C

7.1 C

6.8 C

9.8 C

0 W/m

0.00 mm

15:35

9.5 C

1017.7 hpa

92 %

12.9 km/h aus 116

22.5 km/h aus SSW

8.3 C

7.7 C

7.4 C

9.7 C

0 W/m

0.00 mm

15:40

9.6 C

1017.7 hpa

92 %

12.9 km/h aus 117

22.5 km/h aus SSW

8.3 C

7.7 C

7.5 C

9.8 C

0 W/m

0.00 mm

15:45

9.6 C

1017.6 hpa

92 %

11.3 km/h aus 117

22.5 km/h aus SW

8.3 C

8.1 C

7.9 C

9.8 C

0 W/m

0.00 mm

15:50

9.6 C

1017.6 hpa

92 %

11.3 km/h aus 117

20.9 km/h aus SSW

8.3 C

8.1 C

7.9 C

9.8 C

0 W/m

0.00 mm

15:55

9.6 C

1017.6 hpa

92 %

11.3 km/h aus 117

19.3 km/h aus SW

8.3 C

8.1 C

7.9 C

9.8 C

0 W/m

0.00 mm

16:00

9.6 C

1017.6 hpa

92 %

9.7 km/h aus 115

19.3 km/h aus WSW

8.3 C

8.4 C

8.2 C

9.8 C

0 W/m

0.00 mm

16:05

9.6 C

1017.6 hpa

92 %

11.3 km/h aus 117

20.9 km/h aus SSW

8.3 C

8.1 C

7.9 C

9.8 C

0 W/m

0.00 mm

16:10

9.5 C

1017.6 hpa

92 %

12.9 km/h aus 117

20.9 km/h aus SW

8.3 C

7.7 C

7.4 C

9.7 C

0 W/m

0.00 mm

16:15

9.5 C

1017.6 hpa

92 %

11.3 km/h aus 116

20.9 km/h aus SW

8.3 C

8.1 C

7.8 C

9.7 C

0 W/m

0.00 mm

16:20

9.5 C

1017.6 hpa

92 %

11.3 km/h aus 117

22.5 km/h aus SW

8.3 C

8.1 C

7.8 C

9.7 C

0 W/m

0.00 mm

16:25

9.5 C

1017.6 hpa

92 %

8.0 km/h aus 116

19.3 km/h aus SW

8.3 C

8.6 C

8.4 C

9.7 C

0 W/m

0.00 mm

16:30

9.5 C

1017.6 hpa

92 %

9.7 km/h aus 117

20.9 km/h aus SW

8.3 C

8.3 C

8.1 C

9.7 C

0 W/m

0.00 mm

16:35

9.5 C

1017.6 hpa

92 %

9.7 km/h aus 117

19.3 km/h aus SSW

8.3 C

8.3 C

8.1 C

9.7 C

0 W/m

0.00 mm

16:40

9.6 C

1017.6 hpa

92 %

11.3 km/h aus 117

19.3 km/h aus SW

8.3 C

8.1 C

7.9 C

9.8 C

0 W/m

0.00 mm

16:45

9.5 C

1017.5 hpa

92 %

14.5 km/h aus 115

24.1 km/h aus WSW

8.3 C

7.3 C

7.1 C

9.7 C

0 W/m

0.00 mm

16:50

9.5 C

1017.5 hpa

92 %

11.3 km/h aus 116

20.9 km/h aus WSW

8.3 C

8.1 C

7.8 C

9.7 C

0 W/m

0.00 mm

16:55

9.6 C

1017.5 hpa

92 %

12.9 km/h aus 117

24.1 km/h aus SW

8.3 C

7.7 C

7.5 C

9.8 C

0 W/m

0.00 mm

17:00

9.5 C

1017.6 hpa

92 %

14.5 km/h aus 117

25.7 km/h aus SW

8.3 C

7.3 C

7.1 C

9.7 C

0 W/m

0.00 mm

17:05

9.5 C

1017.6 hpa

93 %

11.3 km/h aus 117

24.1 km/h aus WSW

8.4 C

8.1 C

7.8 C

9.7 C

0 W/m

0.00 mm

17:10

9.5 C

1017.6 hpa

93 %

12.9 km/h aus 115

22.5 km/h aus SW

8.4 C

7.7 C

7.4 C

9.7 C

0 W/m

0.00 mm

17:15

9.5 C

1017.7 hpa

93 %

9.7 km/h aus 116

17.7 km/h aus SW

8.4 C

8.3 C

8.1 C

9.7 C

0 W/m

0.00 mm

17:20

9.5 C

1017.7 hpa

93 %

12.9 km/h aus 117

24.1 km/h aus SW

8.4 C

7.7 C

7.4 C

9.7 C

0 W/m

0.00 mm

17:25

9.5 C

1017.7 hpa

93 %

11.3 km/h aus 117

19.3 km/h aus SW

8.4 C

8.1 C

7.8 C

9.7 C

0 W/m

0.00 mm

17:30

9.4 C

1017.7 hpa

93 %

14.5 km/h aus 117

24.1 km/h aus WSW

8.4 C

7.3 C

7.1 C

9.7 C

0 W/m

0.00 mm

17:35

9.4 C

1017.7 hpa

93 %

9.7 km/h aus 117

17.7 km/h aus WSW

8.4 C

8.3 C

8.1 C

9.7 C

0 W/m

0.00 mm

17:40

9.4 C

1017.7 hpa

93 %

8.0 km/h aus 116

19.3 km/h aus SW

8.4 C

8.6 C

8.3 C

9.7 C

0 W/m

0.00 mm

17:45

9.4 C

1018.0 hpa

93 %

11.3 km/h aus 117

20.9 km/h aus WSW

8.4 C

8.0 C

7.8 C

9.7 C

0 W/m

0.25 mm

17:50

9.4 C

1018.0 hpa

93 %

11.3 km/h aus 117

20.9 km/h aus WSW

8.3 C

7.9 C

7.7 C

9.6 C

0 W/m

0.00 mm

17:55

9.4 C

1018.0 hpa

93 %

11.3 km/h aus 116

20.9 km/h aus WSW

8.3 C

7.9 C

7.7 C

9.6 C

0 W/m

0.00 mm

18:00

9.4 C

1018.1 hpa

93 %

9.7 km/h aus 115

19.3 km/h aus SW

8.3 C

8.2 C

8.0 C

9.6 C

0 W/m

0.00 mm

18:05

9.3 C

1018.1 hpa

93 %

12.9 km/h aus 118

22.5 km/h aus WSW

8.3 C

7.5 C

7.3 C

9.6 C

0 W/m

0.00 mm

18:10

9.3 C

1018.1 hpa

93 %

11.3 km/h aus 116

17.7 km/h aus WSW

8.3 C

7.9 C

7.7 C

9.6 C

0 W/m

0.00 mm

18:15

9.3 C

1018.2 hpa

93 %

6.4 km/h aus 117

20.9 km/h aus SW

8.3 C

8.8 C

8.6 C

9.6 C

0 W/m

0.00 mm

18:20

9.3 C

1018.2 hpa

93 %

11.3 km/h aus 117

20.9 km/h aus WSW

8.3 C

7.9 C

7.7 C

9.6 C

0 W/m

0.00 mm

18:25

9.3 C

1018.2 hpa

93 %

9.7 km/h aus 116

19.3 km/h aus SW

8.3 C

8.2 C

7.9 C

9.6 C

0 W/m

0.00 mm

18:30

9.3 C

1018.2 hpa

93 %

11.3 km/h aus 116

19.3 km/h aus WSW

8.3 C

7.9 C

7.7 C

9.6 C

0 W/m

0.00 mm

18:35

9.3 C

1018.2 hpa

93 %

9.7 km/h aus 116

16.1 km/h aus WSW

8.2 C

8.1 C

7.8 C

9.5 C

0 W/m

0.00 mm

18:40

9.3 C

1018.2 hpa

93 %

11.3 km/h aus 117

19.3 km/h aus WSW

8.3 C

7.9 C

7.7 C

9.6 C

0 W/m

0.00 mm

18:45

9.3 C

1018.2 hpa

93 %

9.7 km/h aus 116

19.3 km/h aus SW

8.2 C

8.1 C

7.8 C

9.5 C

0 W/m

0.00 mm

18:50

9.3 C

1018.2 hpa

93 %

11.3 km/h aus 117

19.3 km/h aus WSW

8.2 C

7.8 C

7.6 C

9.5 C

0 W/m

0.00 mm

18:55

9.3 C

1018.2 hpa

93 %

9.7 km/h aus 116

16.1 km/h aus SW

8.2 C

8.1 C

7.8 C

9.5 C

0 W/m

0.00 mm

19:00

9.3 C

1018.2 hpa

93 %

9.7 km/h aus 116

16.1 km/h aus WSW

8.2 C

8.1 C

7.8 C

9.5 C

0 W/m

0.00 mm

19:05

9.3 C

1018.2 hpa

93 %

8.0 km/h aus 118

25.7 km/h aus SSW

8.2 C

8.4 C

8.2 C

9.5 C

0 W/m

0.00 mm

19:10

9.3 C

1018.2 hpa

93 %

8.0 km/h aus 117

17.7 km/h aus SW

8.2 C

8.4 C

8.2 C

9.5 C

0 W/m

0.00 mm

19:15

9.3 C

1018.2 hpa

93 %

11.3 km/h aus 116

19.3 km/h aus WSW

8.2 C

7.8 C

7.6 C

9.5 C

0 W/m

0.00 mm

19:20

9.3 C

1018.2 hpa

93 %

8.0 km/h aus 117

19.3 km/h aus SW

8.2 C

8.4 C

8.2 C

9.5 C

0 W/m

0.00 mm

19:25

9.3 C

1018.2 hpa

93 %

11.3 km/h aus 117

17.7 km/h aus WSW

8.2 C

7.8 C

7.6 C

9.5 C

0 W/m

0.00 mm

19:30

9.3 C

1018.3 hpa

93 %

9.7 km/h aus 115

16.1 km/h aus SW

8.2 C

8.1 C

7.8 C

9.5 C

0 W/m

0.00 mm

19:35

9.3 C

1018.3 hpa

94 %

9.7 km/h aus 117

19.3 km/h aus WSW

8.4 C

8.1 C

7.8 C

9.5 C

0 W/m

0.00 mm

19:40

9.3 C

1018.3 hpa

94 %

9.7 km/h aus 116

16.1 km/h aus SW

8.4 C

8.1 C

7.8 C

9.5 C

0 W/m

0.00 mm

19:45

9.3 C

1018.3 hpa

94 %

9.7 km/h aus 117

20.9 km/h aus WSW

8.4 C

8.1 C

7.8 C

9.5 C

0 W/m

0.00 mm

19:50

9.3 C

1018.3 hpa

94 %

11.3 km/h aus 116

20.9 km/h aus SW

8.4 C

7.8 C

7.6 C

9.5 C

0 W/m

0.00 mm

19:55

9.3 C

1018.3 hpa

94 %

9.7 km/h aus 117

22.5 km/h aus SW

8.4 C

8.1 C

7.8 C

9.5 C

0 W/m

0.00 mm

20:00

9.3 C

1018.2 hpa

94 %

9.7 km/h aus 115

16.1 km/h aus WSW

8.4 C

8.1 C

7.8 C

9.5 C

0 W/m

0.00 mm

20:05

9.3 C

1018.2 hpa

94 %

9.7 km/h aus 116

17.7 km/h aus SW

8.4 C

8.1 C

7.8 C

9.5 C

0 W/m

0.00 mm

20:10

9.3 C

1018.2 hpa

94 %

11.3 km/h aus 116

20.9 km/h aus SW

8.4 C

7.8 C

7.6 C

9.5 C

0 W/m

0.00 mm

20:15

9.3 C

1018.2 hpa

94 %

8.0 km/h aus 116

17.7 km/h aus SW

8.4 C

8.4 C

8.2 C

9.6 C

0 W/m

0.00 mm

20:20

9.3 C

1018.2 hpa

94 %

9.7 km/h aus 117

19.3 km/h aus WSW

8.4 C

8.2 C

7.9 C

9.6 C

0 W/m

0.00 mm

20:25

9.3 C

1018.2 hpa

94 %

9.7 km/h aus 117

17.7 km/h aus SW

8.4 C

8.2 C

7.9 C

9.6 C

0 W/m

0.00 mm

20:30

9.3 C

1018.4 hpa

94 %

9.7 km/h aus 117

19.3 km/h aus SW

8.4 C

8.2 C

7.9 C

9.6 C

0 W/m

0.00 mm

20:35

9.3 C

1018.4 hpa

94 %

8.0 km/h aus 117

19.3 km/h aus SW

8.4 C

8.4 C

8.2 C

9.6 C

0 W/m

0.00 mm

20:40

9.3 C

1018.4 hpa

94 %

9.7 km/h aus 115

19.3 km/h aus WSW

8.4 C

8.2 C

7.9 C

9.6 C

0 W/m

0.00 mm

20:45

9.3 C

1018.6 hpa

94 %

8.0 km/h aus 117

20.9 km/h aus SW

8.4 C

8.4 C

8.2 C

9.6 C

0 W/m

0.00 mm

20:50

9.3 C

1018.6 hpa

94 %

9.7 km/h aus 116

20.9 km/h aus WSW

8.4 C

8.2 C

7.9 C

9.6 C

0 W/m

0.00 mm

20:55

9.3 C

1018.6 hpa

94 %

9.7 km/h aus 116

17.7 km/h aus WSW

8.4 C

8.2 C

7.9 C

9.6 C

0 W/m

0.00 mm

21:00

9.3 C

1018.7 hpa

94 %

11.3 km/h aus 116

20.9 km/h aus SW

8.4 C

7.9 C

7.7 C

9.6 C

0 W/m

0.00 mm

21:05

9.3 C

1018.7 hpa

94 %

11.3 km/h aus 116

19.3 km/h aus SW

8.4 C

7.9 C

7.7 C

9.6 C

0 W/m

0.00 mm

21:10

9.3 C

1018.7 hpa

94 %

11.3 km/h aus 117

20.9 km/h aus WSW

8.4 C

7.9 C

7.7 C

9.6 C

0 W/m

0.00 mm

21:15

9.3 C

1018.7 hpa

94 %

9.7 km/h aus 118

19.3 km/h aus WSW

8.4 C

8.2 C

7.9 C

9.6 C

0 W/m

0.00 mm

21:20

9.3 C

1018.7 hpa

94 %

9.7 km/h aus 116

17.7 km/h aus SW

8.4 C

8.2 C

7.9 C

9.6 C

0 W/m

0.00 mm

21:25

9.3 C

1018.7 hpa

94 %

11.3 km/h aus 117

20.9 km/h aus SW

8.4 C

7.9 C

7.7 C

9.6 C

0 W/m

0.00 mm

21:30

9.3 C

1018.7 hpa

94 %

9.7 km/h aus 116

17.7 km/h aus WSW

8.4 C

8.2 C

7.9 C

9.6 C

0 W/m

0.00 mm

21:35

9.3 C

1018.7 hpa

94 %

11.3 km/h aus 117

20.9 km/h aus WSW

8.4 C

7.9 C

7.7 C

9.6 C

0 W/m

0.00 mm

21:40

9.3 C

1018.7 hpa

94 %

9.7 km/h aus 117

19.3 km/h aus WSW

8.4 C

8.1 C

7.8 C

9.5 C

0 W/m

0.00 mm

21:45

9.3 C

1018.7 hpa

94 %

9.7 km/h aus 116

19.3 km/h aus SW

8.4 C

8.1 C

7.8 C

9.5 C

0 W/m

0.00 mm

21:50

9.3 C

1018.7 hpa

94 %

11.3 km/h aus 117

16.1 km/h aus SW

8.4 C

7.8 C

7.6 C

9.5 C

0 W/m

0.00 mm

21:55

9.3 C

1018.7 hpa

94 %

9.7 km/h aus 117

17.7 km/h aus WSW

8.4 C

8.1 C

7.8 C

9.5 C

0 W/m

0.00 mm

22:00

9.3 C

1018.7 hpa

94 %

9.7 km/h aus 117

17.7 km/h aus WSW

8.4 C

8.1 C

7.8 C

9.5 C

0 W/m

0.00 mm

22:05

9.3 C

1018.7 hpa

94 %

9.7 km/h aus 116

20.9 km/h aus SW

8.4 C

8.1 C

7.8 C

9.5 C

0 W/m

0.00 mm

22:10

9.3 C

1018.7 hpa

94 %

9.7 km/h aus 116

16.1 km/h aus WSW

8.4 C

8.1 C

7.8 C

9.5 C

0 W/m

0.00 mm

22:15

9.3 C

1018.7 hpa

94 %

9.7 km/h aus 117

19.3 km/h aus SW

8.4 C

8.1 C

7.8 C

9.5 C

0 W/m

0.00 mm

22:20

9.3 C

1018.7 hpa

94 %

9.7 km/h aus 116

17.7 km/h aus SW

8.4 C

8.1 C

7.8 C

9.5 C

0 W/m

0.00 mm

22:25

9.3 C

1018.7 hpa

94 %

9.7 km/h aus 117

19.3 km/h aus SW

8.4 C

8.1 C

7.8 C

9.5 C

0 W/m

0.00 mm

22:30

9.3 C

1018.7 hpa

94 %

12.9 km/h aus 117

22.5 km/h aus SW

8.4 C

7.4 C

7.2 C

9.5 C

0 W/m

0.00 mm

22:35

9.3 C

1018.7 hpa

94 %

11.3 km/h aus 117

19.3 km/h aus WSW

8.4 C

7.8 C

7.6 C

9.5 C

0 W/m

0.00 mm

22:40

9.3 C

1018.7 hpa

94 %

9.7 km/h aus 116

19.3 km/h aus WSW

8.4 C

8.1 C

7.8 C

9.5 C

0 W/m

0.00 mm

22:45

9.3 C

1019.0 hpa

94 %

11.3 km/h aus 117

20.9 km/h aus WSW

8.4 C

7.8 C

7.6 C

9.5 C

0 W/m

0.00 mm

22:50

9.3 C

1019.0 hpa

94 %

9.7 km/h aus 117

20.9 km/h aus SW

8.4 C

8.2 C

7.9 C

9.6 C

0 W/m

0.00 mm

22:55

9.3 C

1019.0 hpa

94 %

9.7 km/h aus 115

17.7 km/h aus WSW

8.4 C

8.2 C

7.9 C

9.6 C

0 W/m

0.00 mm

23:00

9.3 C

1019.1 hpa

94 %

6.4 km/h aus 117

19.3 km/h aus SW

8.4 C

8.8 C

8.6 C

9.6 C

0 W/m

0.00 mm

23:05

9.3 C

1019.1 hpa

94 %

9.7 km/h aus 117

17.7 km/h aus WSW

8.4 C

8.2 C

7.9 C

9.6 C

0 W/m

0.00 mm

23:10

9.3 C

1019.1 hpa

94 %

9.7 km/h aus 116

19.3 km/h aus WSW

8.4 C

8.2 C

7.9 C

9.6 C

0 W/m

0.00 mm

23:15

9.3 C

1019.2 hpa

94 %

11.3 km/h aus 117

17.7 km/h aus WSW

8.4 C

7.9 C

7.7 C

9.6 C

0 W/m

0.00 mm

23:20

9.3 C

1019.2 hpa

94 %

9.7 km/h aus 118

19.3 km/h aus SW

8.4 C

8.2 C

7.9 C

9.6 C

0 W/m

0.00 mm

23:25

9.3 C

1019.2 hpa

94 %

9.7 km/h aus 117

17.7 km/h aus SW

8.4 C

8.2 C

7.9 C

9.6 C

0 W/m

0.00 mm

23:30

9.3 C

1019.3 hpa

94 %

8.0 km/h aus 117

16.1 km/h aus SW

8.4 C

8.4 C

8.2 C

9.6 C

0 W/m

0.00 mm

23:35

9.3 C

1019.3 hpa

94 %

9.7 km/h aus 117

19.3 km/h aus SW

8.4 C

8.2 C

7.9 C

9.6 C

0 W/m

0.00 mm

23:40

9.3 C

1019.3 hpa

94 %

6.4 km/h aus 115

14.5 km/h aus WSW

8.4 C

8.8 C

8.6 C

9.6 C

0 W/m

0.00 mm

23:45

9.3 C

1019.4 hpa

94 %

9.7 km/h aus 116

14.5 km/h aus WSW

8.4 C

8.2 C

7.9 C

9.6 C

0 W/m

0.00 mm

23:50

9.3 C

1019.4 hpa

94 %

6.4 km/h aus 117

17.7 km/h aus SW

8.4 C

8.8 C

8.6 C

9.6 C

0 W/m

0.00 mm

23:55

9.3 C

1019.4 hpa

94 %

8.0 km/h aus 117

14.5 km/h aus WSW

8.4 C

8.4 C

8.2 C

9.6 C

0 W/m

0.00 mm